Wind_Speed
33 35 38 39 40 42 45 46 46 46 46 46 45 43 40 40 42 42 43 43 42 41 40 41 40 40 40 41 42 41 40 38 37 37 36 36 35 35 35 34 32 32 33 33
30 31 32 32 33 36 38 40 40 42 44 44 44 42 40 40 41 42 43 43 43 43 43 43 43 43 43 43 44 44 43 42 41 41 40 40 40 40 39 36 34 33 33 34
28 29 30 32 32 32 33 34 35 37 38 40 41 40 38 37 39 40 41 42 43 43 44 45 45 46 46 46 46 46 46 47 46 45 45 44 44 43 41 38 36 36 37 37
29 29 30 30 30 31 31 31 30 30 32 34 37 37 31 32 34 35 37 39 40 42 43 44 45 47 48 48 49 49 49 50 50 49 48 47 46 45 44 43 42 42 41 40
27 27 27 28 28 28 27 26 25 26 27 29 29 34 27 26 29 32 34 37 39 41 43 45 46 48 50 51 52 53 53 53 53 54 52 51 48 47 47 48 47 45 44 43
25 25 25 25 25 25 23 22 22 22 23 24 22 29 26 24 29 33 36 39 42 44 47 49 51 53 54 55 56 57 58 58 58 58 57 55 53 50 49 49 49 48 47 46
22 23 23 24 23 22 21 21 20 20 20 20 21 24 25 28 30 34 37 41 44 47 50 53 55 57 58 59 60 61 62 62 63 62 62 60 58 55 52 51 51 50 50 48
21 23 23 23 22 21 20 19 18 18 19 19 21 24 24 28 32 35 38 41 43 46 49 51 53 55 57 59 60 61 62 63 65 66 66 65 63 59 56 54 53 52 50 49
22 22 21 21 20 19 18 17 16 18 19 20 21 23 23 27 31 35 37 40 43 45 48 51 53 55 56 58 59 60 61 62 63 65 67 68 66 63 59 56 54 53 51 50
21 20 20 19 18 16 15 14 15 17 20 21 20 19 22 25 28 32 35 38 42 45 48 52 54 56 57 57 58 58 59 59 61 62 64 67 67 65 61 58 56 54 52 50
19 18 17 16 15 13 13 14 15 17 19 20 19 16 20 23 27 30 34 38 42 46 50 53 55 56 56 55 54 53 54 55 56 58 60 63 64 64 62 59 56 54 52 49
16 16 15 14 13 12 13 14 15 16 17 17 17 15 19 23 27 31 34 38 42 46 49 51 52 53 51 49 47 46 46 48 50 53 55 58 61 61 60 57 55 52 50 47
15 14 13 13 12 12 13 14 14 14 13 13 12 13 20 23 27 30 34 38 42 44 46 47 48 46 44 42 40 40 41 42 45 47 49 52 56 58 57 54 52 49 47 44
13 12 12 12 11 11 12 13 12 10 8 8 11 13 18 23 26 29 33 36 39 40 40 40 38 35 32 32 33 33 34 36 38 41 43 46 50 52 52 50 48 45 43 40
12 12 12 12 11 11 11 11 10 7 5 6 11 16 20 23 25 28 31 33 34 35 34 31 27 22 19 20 23 25 27 29 31 33 34 38 43 45 45 45 43 40 38 37
12 12 12 12 11 10 10 9 7 5 4 7 11 16 20 23 25 28 29 29 30 30 28 24 19 13 9 10 13 17 20 22 24 25 28 32 35 38 39 38 36 35 34 34
13 12 12 11 10 10 8 7 5 2 4 8 13 16 19 21 25 26 27 27 28 27 24 21 17 12 6 1 5 9 14 18 20 23 26 28 30 32 32 31 31 31 32 31
12 12 12 10 9 8 8 6 4 2 4 8 13 17 19 21 23 25 26 26 25 23 21 18 15 13 11 10 9 11 14 17 19 21 23 26 27 28 27 28 27 28 28 30
12 12 11 9 9 8 8 6 5 4 5 8 12 15 18 20 22 23 24 24 22 20 18 16 14 12 12 13 14 15 17 18 19 20 22 23 23 23 24 25 26 27 28 31
12 12 11 9 9 9 8 7 6 4 5 8 11 14 16 18 20 21 21 21 20 18 16 14 12 12 12 13 15 16 18 18 19 19 18 18 20 21 22 22 25 27 29 31
12 13 12 11 10 10 9 8 7 6 6 8 10 12 14 17 18 19 19 19 18 17 14 13 12 11 11 11 12 14 14 15 15 14 13 14 16 17 19 21 23 24 25 26
13 13 13 12 12 11 10 9 8 7 7 8 9 11 12 14 16 16 16 16 15 15 13 12 11 10 9 9 9 10 9 9 9 8 8 10 12 14 16 16 18 19 21 23
14 14 15 14 13 12 11 10 9 8 8 8 8 9 11 13 14 14 14 13 12 11 12 11 10 9 9 8 6 6 5 5 5 6 6 6 7 9 10 12 15 18 22 26
15 16 16 16 16 14 13 11 10 10 9 9 8 9 10 11 12 13 12 11 10 8 8 8 9 9 8 8 7 6 5 3 2 1 1 3 6 8 11 14 18 22 26 29
17 17 18 18 18 17 15 14 12 12 11 10 9 9 9 9 10 11 11 10 9 7 5 4 5 6 6 6 5 4 3 3 2 3 5 7 10 13 16 19 22 25 28 31
19 18 18 18 20 19 17 16 14 13 12 12 11 10 9 8 9 10 10 9 8 7 5 4 3 3 3 3 3 4 4 5 6 8 10 13 16 18 21 23 26 29 31 33
Wind_Direction
213 218 224 227 230 232 234 236 238 240 241 242 243 244 245 246 248 249 250 251 252 252 251 250 249 248 245 245 247 249 251 251 251 251 253 256 257 256 255 255 255 258 261 264
211 215 219 223 227 232 235 236 238 241 242 243 244 245 247 248 250 252 252 252 252 251 251 251 250 249 248 247 247 248 250 251 251 251 251 252 253 254 255 255 257 259 261 262
211 214 217 221 226 232 235 237 238 241 245 247 246 245 248 251 253 254 255 255 254 253 252 252 251 251 251 251 250 250 250 250 251 251 251 250 252 254 257 258 258 258 258 260
211 214 219 222 226 231 236 238 240 242 245 249 250 249 247 253 255 256 256 256 256 255 255 255 255 255 254 254 253 253 252 251 251 252 252 252 252 254 256 257 256 256 258 261
212 216 220 223 226 231 235 236 238 241 245 248 252 255 246 249 252 254 256 256 257 258 258 258 258 258 258 258 257 257 256 254 252 252 252 253 252 252 253 255 257 258 260 262
210 214 218 221 223 226 226 227 231 236 240 244 245 255 255 254 254 255 257 259 260 261 261 261 261 261 261 260 260 259 257 256 254 253 252 252 252 252 252 253 255 257 258 260
207 209 211 213 214 214 213 217 223 228 235 242 245 254 264 269 268 266 264 264 265 265 264 264 263 262 261 260 259 257 257 255 254 253 252 251 251 251 251 251 253 254 256 259
201 204 205 205 206 203 203 211 223 233 238 245 253 259 271 278 277 276 274 273 272 271 270 269 267 265 263 261 259 257 255 253 252 251 250 249 249 249 249 250 251 252 255 257
196 197 197 197 197 200 204 217 232 248 255 261 265 272 281 282 282 282 281 280 278 277 275 274 272 270 268 265 262 259 256 253 250 248 246 246 246 246 247 247 248 250 252 254
188 189 190 193 199 207 217 231 248 262 272 276 279 290 292 288 287 287 286 287 286 285 283 282 279 276 272 268 265 261 257 253 249 246 244 242 242 242 243 244 245 248 250 253
185 189 195 202 210 219 233 248 261 270 278 286 292 303 295 292 293 295 295 295 294 292 291 288 285 281 276 271 266 260 255 251 247 244 241 239 237 237 238 239 242 244 247 250
189 196 205 214 222 235 247 258 265 273 281 289 298 306 300 303 305 305 303 302 300 299 296 293 289 284 278 271 264 258 252 248 245 241 240 237 234 233 233 234 237 241 244 248
198 205 216 226 235 246 255 262 268 274 281 290 299 307 308 312 313 311 311 310 308 306 303 300 293 285 276 267 260 254 250 245 241 239 237 236 232 228 227 228 232 237 241 245
210 218 229 239 248 254 258 264 270 275 280 293 305 313 315 317 317 318 318 317 317 314 311 308 300 288 275 264 255 250 246 242 238 238 236 232 226 222 222 223 227 232 237 242
223 231 241 249 253 253 256 259 260 260 274 311 322 325 328 329 328 330 329 328 327 326 323 320 314 300 278 260 250 244 239 237 235 234 230 223 217 215 216 218 222 228 234 240
231 239 247 251 250 248 244 241 236 241 301 332 336 335 337 338 338 338 339 338 338 338 337 336 335 326 297 261 239 231 227 224 219 213 206 203 205 207 210 213 219 226 232 238
233 239 244 246 244 238 225 218 216 252 331 341 344 344 343 342 342 345 348 349 349 349 352 356 0 10 24 77 194 203 197 188 183 179 181 187 194 199 203 209 217 224 231 238
232 236 239 239 233 225 215 211 217 266 326 341 345 347 346 346 347 350 354 356 357 359 4 13 22 37 58 79 106 135 149 156 159 162 167 178 185 192 199 208 215 226 234 243
230 232 234 232 222 211 206 208 223 261 313 337 344 346 348 350 351 353 358 1 3 8 14 22 32 48 69 88 103 117 126 133 139 148 159 170 180 191 202 210 218 227 237 249
228 229 227 221 215 208 210 216 227 256 296 327 337 342 345 349 353 357 1 4 10 13 21 30 43 58 75 91 104 113 122 130 138 147 158 171 185 197 205 217 228 235 245 251
227 223 218 215 213 215 216 221 233 257 294 321 333 337 341 346 351 357 2 8 14 20 27 36 52 67 78 90 100 110 122 132 141 153 170 188 206 214 221 228 237 246 256 264
224 220 217 216 218 222 224 231 241 262 293 315 326 332 336 341 346 350 357 4 16 25 32 40 53 67 78 87 92 102 116 134 151 169 189 205 220 226 233 243 254 264 274 281
224 223 220 220 223 226 230 239 246 264 286 302 315 322 329 334 338 342 348 355 6 21 35 43 53 64 73 78 89 110 128 150 174 195 212 224 238 249 258 268 277 284 289 293
225 225 223 223 227 231 235 243 252 264 276 288 299 310 318 325 332 337 340 344 352 6 27 44 57 68 75 81 85 94 104 115 121 156 270 283 287 288 291 293 295 297 300 302
230 227 225 225 230 235 240 246 255 262 270 278 285 293 302 313 324 332 334 335 337 340 356 24 50 64 71 77 79 73 63 45 11 327 311 304 302 302 302 303 304 306 307 307
235 233 230 229 233 238 242 249 256 261 266 270 273 277 283 294 313 322 326 325 325 323 321 330 349 6 15 16 11 2 349 338 327 317 312 310 310 310 311 311 311 310 310 309
Height
5670 5678 5683 5689 5695 5699 5704 5708 5713 5717 5720 5725 5728 5732 5737 5739 5741 5743 5745 5746 5748 5750 5751 5753 5755 5757 5759 5761 5763 5765 5766 5768 5769 5770 5771 5772 5774 5775 5776 5777 5779 5780 5780 5779
5668 5673 5679 5683 5688 5693 5697 5702 5707 5710 5713 5717 5721 5725 5729 5731 5733 5734 5736 5737 5739 5741 5743 5744 5746 5747 5749 5751 5753 5755 5757 5758 5760 5762 5763 5764 5764 5765 5767 5769 5772 5773 5772 5772
5664 5670 5674 5679 5684 5688 5692 5697 5700 5704 5707 5710 5714 5719 5723 5724 5724 5726 5727 5728 5730 5731 5733 5734 5736 5737 5739 5741 5743 5745 5747 5748 5749 5751 5753 5754 5754 5756 5758 5762 5764 5764 5763 5763
5659 5665 5670 5675 5679 5683 5687 5691 5695 5698 5701 5704 5707 5711 5718 5716 5717 5718 5719 5720 5720 5722 5723 5724 5725 5726 5728 5729 5731 5733 5735 5737 5738 5740 5742 5744 5746 5748 5750 5752 5753 5753 5754 5754
5656 5661 5666 5671 5675 5679 5684 5687 5690 5693 5696 5699 5701 5703 5712 5710 5710 5710 5710 5711 5711 5712 5713 5713 5714 5715 5715 5716 5718 5719 5721 5724 5726 5728 5730 5733 5736 5738 5740 5741 5742 5743 5744 5745
5653 5658 5663 5667 5671 5675 5679 5683 5685 5688 5690 5695 5697 5697 5702 5702 5702 5702 5702 5702 5702 5702 5702 5702 5702 5702 5703 5703 5703 5704 5706 5708 5711 5714 5717 5720 5723 5726 5728 5730 5731 5732 5733 5735
5650 5655 5659 5663 5667 5672 5676 5679 5682 5684 5686 5690 5691 5692 5695 5693 5692 5692 5692 5692 5690 5690 5689 5688 5688 5687 5687 5687 5687 5688 5689 5691 5693 5697 5701 5705 5709 5713 5716 5718 5720 5721 5723 5725
5648 5652 5656 5660 5664 5668 5672 5675 5679 5681 5683 5685 5686 5687 5689 5685 5682 5681 5680 5679 5677 5675 5674 5672 5671 5670 5669 5668 5668 5668 5669 5671 5674 5678 5683 5688 5693 5698 5702 5705 5708 5710 5713 5715
5646 5650 5655 5659 5663 5666 5670 5672 5675 5677 5678 5679 5680 5681 5680 5676 5673 5671 5668 5666 5663 5660 5657 5655 5653 5650 5649 5647 5646 5646 5648 5650 5653 5657 5663 5669 5676 5682 5688 5691 5695 5699 5702 5704
5645 5650 5653 5657 5661 5664 5667 5669 5672 5673 5672 5673 5674 5673 5670 5667 5664 5661 5657 5653 5649 5645 5640 5636 5632 5629 5627 5625 5624 5624 5626 5629 5633 5637 5643 5651 5659 5666 5672 5677 5682 5687 5691 5694
5645 5650 5653 5656 5659 5662 5665 5667 5667 5667 5668 5666 5666 5668 5663 5659 5655 5652 5647 5641 5636 5630 5623 5617 5612 5607 5604 5603 5603 5604 5605 5608 5613 5618 5625 5633 5641 5650 5656 5663 5670 5675 5679 5684
5645 5649 5651 5655 5657 5659 5661 5662 5663 5663 5662 5660 5659 5663 5656 5652 5647 5642 5637 5630 5623 5615 5607 5599 5592 5586 5583 5582 5582 5584 5586 5590 5595 5601 5607 5615 5624 5633 5642 5650 5658 5664 5669 5674
5644 5648 5650 5653 5657 5657 5657 5657 5657 5657 5657 5656 5655 5657 5650 5645 5640 5634 5628 5620 5611 5601 5592 5582 5573 5566 5563 5563 5565 5567 5570 5574 5579 5585 5592 5600 5609 5620 5629 5638 5647 5654 5659 5664
5643 5646 5649 5651 5651 5652 5652 5652 5652 5652 5653 5652 5651 5650 5646 5640 5634 5628 5620 5610 5600 5590 5579 5568 5558 5551 5548 5548 5550 5553 5557 5562 5567 5573 5579 5587 5597 5609 5619 5628 5637 5644 5650 5655
5641 5643 5644 5646 5647 5647 5648 5648 5649 5649 5649 5649 5647 5643 5639 5634 5628 5621 5612 5603 5593 5582 5571 5560 5550 5543 5539 5539 5541 5544 5548 5553 5558 5564 5570 5579 5589 5600 5611 5621 5629 5637 5642 5647
5638 5640 5641 5642 5643 5643 5644 5645 5645 5646 5645 5644 5642 5639 5635 5629 5623 5616 5607 5598 5588 5578 5567 5557 5548 5541 5537 5535 5536 5539 5542 5546 5552 5557 5565 5575 5586 5597 5607 5616 5624 5631 5636 5639
5635 5637 5638 5639 5639 5640 5642 5642 5642 5643 5642 5641 5639 5636 5631 5627 5620 5613 5604 5595 5586 5577 5568 5559 5551 5545 5540 5537 5537 5538 5541 5545 5551 5558 5566 5576 5586 5596 5605 5613 5620 5625 5629 5632
5632 5633 5634 5635 5637 5638 5640 5639 5640 5640 5640 5638 5635 5632 5628 5623 5617 5610 5602 5594 5586 5579 5571 5564 5557 5551 5547 5544 5543 5544 5546 5550 5555 5561 5570 5579 5588 5596 5603 5610 5615 5619 5623 5626
5629 5630 5631 5632 5633 5635 5636 5637 5637 5638 5637 5636 5633 5630 5626 5621 5615 5609 5602 5595 5588 5582 5575 5569 5564 5559 5556 5553 5552 5552 5553 5557 5562 5568 5575 5582 5589 5596 5602 5606 5611 5615 5618 5619
5626 5627 5629 5629 5630 5632 5635 5635 5635 5636 5635 5633 5631 5628 5624 5619 5615 5610 5603 5597 5591 5585 5580 5575 5571 5567 5564 5562 5561 5561 5563 5566 5570 5575 5580 5586 5591 5596 5600 5603 5607 5609 5611 5612
5622 5624 5625 5626 5627 5629 5631 5632 5633 5634 5634 5630 5628 5625 5622 5618 5614 5609 5604 5599 5593 5588 5584 5580 5577 5574 5572 5570 5570 5570 5571 5573 5577 5580 5584 5588 5591 5595 5598 5600 5603 5604 5605 5605
5619 5620 5622 5623 5625 5629 5628 5628 5629 5630 5628 5626 5625 5622 5620 5616 5613 5609 5605 5600 5596 5592 5588 5584 5582 5579 5578 5577 5576 5576 5577 5579 5581 5584 5586 5589 5592 5594 5596 5598 5599 5600 5599 5598
5615 5617 5618 5621 5623 5624 5624 5624 5625 5624 5624 5623 5622 5620 5617 5615 5611 5608 5605 5601 5598 5594 5591 5588 5586 5584 5583 5582 5581 5582 5583 5584 5585 5587 5588 5590 5591 5593 5594 5595 5595 5594 5592 5590
5611 5612 5614 5616 5618 5619 5620 5620 5621 5620 5620 5619 5618 5617 5615 5613 5610 5607 5604 5601 5599 5596 5594 5591 5590 5588 5587 5586 5586 5586 5586 5587 5587 5588 5589 5590 5591 5591 5591 5590 5589 5587 5585 5582
5605 5607 5608 5611 5612 5614 5615 5616 5616 5616 5616 5615 5615 5613 5612 5610 5608 5606 5603 5601 5599 5597 5595 5594 5592 5591 5590 5590 5589 5589 5589 5589 5589 5589 5589 5589 5589 5588 5586 5585 5582 5579 5577 5573
5599 5601 5604 5606 5607 5609 5610 5611 5611 5611 5611 5611 5610 5610 5609 5608 5606 5604 5602 5600 5598 5597 5595 5594 5593 5592 5592 5591 5590 5590 5589 5589 5588 5588 5587 5586 5584 5582 5580 5578 5575 5572 5569 5566